Home > Weather > Amritsar > Past weeks

Flag for India Past Weather in Amritsar, Punjab, India — Yesterday and Last 2 Weeks

Now
86 °F

Scattered clouds.


Feels Like: 89 °F
Forecast: 78 / 104 °F
Wind: 10 mph from Northeast

Location: Amritsar Airport

Current Time: May 24, 2016 at 3:26:40 PM

Latest Report: May 24, 2016 at 3:00 PM


Visibility: 4 mi

Pressure: 29.59 "Hg

Humidity: 55%

Dew Point: 68 °F

Location of AmritsarLocation

Past Weather in Amritsar — Graph

°F

Amritsar Temperature Yesterday

Maximum temperature yesterday: 99 °F (at 4:30 PM)
Minimum temperature yesterday: 82 °F (at 4:00 AM)
Average temperature yesterday: 89 °F

High & Low Weather Summary for the Past Weeks

 TemperatureHumidityPressure
High111 °F (May 18, 3:30 PM)100% (May 24, 4:00 AM)29.86 "Hg (May 24, 4:00 AM)
Low68 °F (May 24, 4:00 AM)9% (May 15, 12:00 PM)29.36 "Hg (May 21, 5:00 PM)
Average91 °F36%29.58 "Hg
* Reported May 9 1:30 PM — May 24 2:00 PM, Amritsar, Weather by CustomWeather, © 2016

Note: Actual official high and low records may vary slightly from our data, if they occured in-between our weather recording intervals... More about our weather records

Advertising

Amritsar Weather History for the Previous 24 Hours

Scroll right to see more
 ConditionsComfort  
Time TempWeatherWind HumidityBarometerVisibility
2:00 PM
Tue, May 24
86 °FScattered clouds.12 mph59%29.62 "Hg4 mi
1:30 PM84 °FScattered clouds.8 mph62%29.62 "Hg3 mi
1:00 PM82 °FScattered clouds.8 mph62%29.65 "Hg3 mi
12:30 PM82 °FScattered clouds.7 mph66%29.65 "Hg3 mi
12:00 PM81 °FScattered clouds.3 mph66%29.65 "Hg3 mi
11:30 AM81 °FScattered clouds.2 mph66%29.65 "Hg3 mi
11:00 AM77 °FBroken clouds.2 mph74%29.65 "Hg3 mi
10:30 AM77 °FBroken clouds.3 mph79%29.65 "Hg3 mi
10:00 AM77 °FBroken clouds.7 mph79%29.65 "Hg3 mi
9:30 AM77 °FBroken clouds.6 mph74%29.65 "Hg3 mi
9:00 AM75 °FBroken clouds.10 mph83%29.62 "Hg3 mi
8:30 AM75 °FBroken clouds.10 mph74%29.62 "Hg3 mi
8:00 AM77 °FBroken clouds.No wind69%29.59 "Hg3 mi
7:30 AM75 °FBroken clouds.12 mph69%29.53 "Hg3 mi
7:00 AM72 °FFog.12 mph83%29.50 "Hg2 mi
6:30 AM72 °FFog.14 mph83%29.50 "Hg2 mi
6:00 AM70 °FThunderstorms. Mostly cloudy.18 mph94%29.47 "Hg2 mi
5:30 AM70 °FThunderstorms. Mostly cloudy.16 mph94%29.59 "Hg1 mi
5:00 AM68 °FThunderstorms. Mostly cloudy.10 mph100%29.68 "Hg1 mi
4:30 AM68 °FThunderstorms. Mostly cloudy.16 mph100%29.74 "Hg1 mi
4:00 AM68 °FThunderstorms. Mostly cloudy.23 mph100%29.77 "Hg1 mi
3:00 AM72 °FThunderstorms. Partly cloudy.7 mph78%29.56 "Hg1 mi
2:30 AM75 °FThunderstorms. Partly cloudy.12 mph61%29.53 "Hg1 mi
2:00 AM81 °FThunderstorms. Partly cloudy.21 mph51%29.53 "Hg1 mi
1:30 AM81 °FThunderstorms. Partly cloudy.13 mph54%29.53 "Hg1 mi
1:00 AM79 °FThunderstorms. Partly cloudy.15 mph58%29.56 "Hg1 mi
12:30 AM75 °FThunderstorms. Partly cloudy.18 mph74%29.59 "Hg1 mi
11:30 PM
Mon, May 23
82 °FPassing clouds.12 mph55%29.53 "Hg2 mi
11:00 PM84 °FPassing clouds.8 mph51%29.53 "Hg2 mi
10:30 PM84 °FPassing clouds.7 mph48%29.53 "Hg2 mi
10:00 PM84 °FPassing clouds.10 mph48%29.53 "Hg2 mi
9:30 PM86 °FHaze.14 mph46%29.53 "Hg2 mi
9:00 PM86 °FHaze.6 mph43%29.50 "Hg2 mi
8:30 PM88 °FHaze.8 mph40%29.50 "Hg2 mi
8:00 PM90 °FPassing clouds.6 mph36%29.47 "Hg3 mi
7:30 PM91 °FScattered clouds.10 mph34%29.47 "Hg4 mi
7:00 PM93 °FScattered clouds.10 mph32%29.45 "Hg4 mi
6:30 PM95 °FScattered clouds.8 mph30%29.45 "Hg4 mi
6:00 PM97 °FPassing clouds.8 mph28%29.45 "Hg4 mi
5:30 PM99 °FPassing clouds.9 mph29%29.45 "Hg4 mi
5:00 PM99 °FPassing clouds.12 mph27%29.45 "Hg4 mi
4:30 PM99 °FPassing clouds.13 mph27%29.45 "Hg4 mi
4:00 PM97 °FPassing clouds.14 mph27%29.45 "Hg4 mi
3:30 PM97 °FPassing clouds.13 mph30%29.47 "Hg4 mi
3:00 PM95 °FScattered clouds.18 mph30%29.47 "Hg4 mi
Weather by CustomWeather, © 2016

See weather overviewHow to use our weather pages